Location: Tel Aviv-Yafo
(32.0678°N, 34.7647°E)
Time: 15:15:07
(UTC+03:00)

Daily predictions for brighter satellites

Satellite Brightness Start Highest point End
(mag) Time Altitude Azimuth Time Altitude Azimuth Time Altitude Azimuth
ARGOS 3.5 19:49:08 10° S 19:54:27 73° WSW 19:59:49 10° NNW
GPS 2-04 Rocket1 3.5 19:52:15 10° W 19:56:19 52° N 20:00:22 10° ENE
USA 290 3.3 19:53:55 10° N 19:56:43 27° ENE 19:59:30 10° SE
SJ-6B 4.1 19:56:34 10° SE 19:59:42 24° ENE 20:02:54 10° NNE
MOS 1-B Rocket 4.3 19:57:19 10° NNE 20:03:45 48° E 20:09:22 10° S
Intercosmos 25 Rocket 3.7 20:02:21 10° N 20:06:21 39° ENE 20:09:26 10° SSE
Cosmos 1743 Rocket 3.6 20:03:50 10° N 20:08:12 84° W 20:12:35 10° S
DELTA 2 R/B (1) 3.6 20:05:01 10° WNW 20:10:37 87° NNE 20:15:53 12° ESE
CZ-2C R/B 2.8 20:11:21 10° S 20:13:54 16° SSE 20:15:38 13° ESE
GEOS 3 Rocket 3.7 20:10:46 10° SE 20:16:07 81° ENE 20:21:31 10° NNW
Intercosmos 24 3.6 20:12:49 10° S 20:16:38 65° E 20:20:08 10° NNE
Cosmos 1500 Rocket 4.1 20:13:13 10° NNW 20:17:31 62° W 20:21:46 10° S
Cosmos 1354 Rocket 4.4 20:12:52 10° SSW 20:18:03 69° WNW 20:23:17 10° N
SL-4 R/B 3.8 20:16:24 10° WNW 20:20:13 29° SW 20:24:14 10° S
SL-08 ROCKET BODY 4.4 20:17:19 10° N 20:23:10 83° W 20:29:00 10° S
SJ 16-02 2.4 20:20:54 10° SSE 20:24:29 25° E 20:28:05 10° NE
ERS-2 2.9 20:23:12 10° N 20:26:46 55° WNW 20:30:18 10° SSW
Cosmos 1666 Rocket 4.3 20:23:59 10° NNE 20:27:55 33° E 20:30:40 17° SE
USA 186 1.0 20:26:22 11° S 20:28:42 84° W 20:31:03 10° NNW
USA 267 3.3 20:24:41 13° SE 20:30:35 74° NE 20:37:07 10° NW
Sich 1 3.0 20:27:03 10° N 20:31:24 68° E 20:35:46 10° SSE
CZ-4C R/B 3.9 20:26:22 10° NNW 20:33:15 36° NE 20:39:10 16° ESE
Meteor 1-26 Rocket 4.2 20:27:41 10° S 20:33:20 69° E 20:38:50 10° NNE
Cosmos 1151 Rocket 3.1 20:29:59 10° S 20:34:15 59° E 20:38:33 10° NNE
MetOp-A 4.3 20:31:31 10° S 20:36:51 78° WSW 20:42:13 10° NNW
OAO 3 Rocket 3.0 20:32:50 10° WSW 20:37:29 83° SSE 20:42:05 10° ENE
Cosmos 1745 Rocket 3.9 20:32:05 10° N 20:38:15 85° E 20:44:22 10° S
Cosmos 1709 Rocket 4.3 20:34:14 10° N 20:40:06 47° E 20:44:36 17° SSE
Cosmos 2278 Rocket 2.1 20:35:07 10° SSW 20:40:44 74° ESE 20:46:24 10° NNE
COSMOS 2406 4.4 20:37:25 10° N 20:42:06 26° ENE 20:44:47 18° E
Cosmos 773 Rocket 4.4 20:42:45 10° N 20:47:49 45° ENE 20:50:35 24° SE
Cosmos 1271 Rocket 4.3 20:48:36 20° E 20:48:36 20° E 20:51:14 10° NE
Meteor 1-20 Rocket 4.2 20:45:00 10° N 20:50:32 85° W 20:55:44 11° S
ATLAS 5 CENTAUR R/B 2.6 20:45:54 10° NNW 20:52:01 83° WSW 20:57:12 19° SSE
X-37B 1.0 20:49:29 10° NW 20:52:37 52° NNE 20:53:33 36° E
SPOT 3 Rocket 4.4 20:53:12 25° ESE 20:55:14 33° ENE 20:59:48 10° N
Cosmos 783 Rocket 4.4 20:51:10 10° NNW 20:56:23 73° ENE 20:59:25 25° SSE
Meteor 1-14 Rocket 4.5 20:58:11 10° N 21:03:47 51° E 21:06:16 30° SE
Cosmos 1602 3.7 20:59:58 10° N 21:03:51 85° W 21:05:43 30° S
IRS-1A Rocket 4.3 21:00:00 18° SSE 21:04:21 90° WSW 21:10:15 10° NNW
Cosmos 1437 3.6 21:02:50 15° SSW 21:04:55 43° W 21:07:38 10° N
Cosmos 2315 Rocket 4.1 21:00:15 10° S 21:06:37 79° W 21:13:01 10° N
Milstar 3 4.2 20:53:11 10° WSW 21:12:23 72° S 21:19:58 20° E
Cosmos 1812 2.5 21:12:30 42° S 21:13:44 81° E 21:17:35 10° N
OBJECT-B 3.1 21:13:57 11° SSW 21:16:16 22° W 21:18:52 10° NW
BREEZE-M DEB (TANK) 3.3 21:11:23 10° NW 21:17:20 43° NNE 21:17:54 39° ENE
Cosmos 1666 4.1 21:14:37 10° NNE 21:16:54 24° NE 21:16:54 24° NE
Cosmos 2228 Rocket 4.2 21:20:03 28° ENE 21:20:03 28° ENE 21:23:04 10° NNE
Tianhe-1 3.1 21:16:27 10° W 21:19:13 28° NNW 21:21:06 16° NNE
Cosmos 1833 Rocket 2.9 21:13:50 10° N 21:19:22 55° ENE 21:21:03 40° ESE
Landsat 7 4.0 21:18:51 44° ESE 21:19:47 51° ENE 21:24:24 10° N
Delta 2 Rocket 4.3 21:16:11 10° W 21:21:21 56° N 21:23:47 27° ENE
Resurs 01 Rocket 1.5 21:20:37 51° SE 21:21:38 72° ENE 21:26:03 10° N
Cosmos 1515 Rocket 3.5 21:20:06 33° S 21:22:02 88° W 21:26:26 10° N
Ariane Rocket 3.5 21:21:25 22° S 21:24:30 56° W 21:29:29 10° NNW
ISS -1.2 21:28:35 10° W 21:31:19 23° NW 21:34:04 10° NNE
Cosmos 1633 Rocket 4.0 21:29:27 10° NNW 21:33:40 45° W 21:35:37 27° SSW
GPS 2-04 Rocket1 3.0 21:31:58 10° WNW 21:36:04 61° N 21:36:20 59° NNE
Iridium 4 Rocket 3.8 21:36:38 51° SE 21:37:51 63° E 21:43:41 10° N
Cosmos 1898 Rocket 3.9 21:38:48 46° E 21:38:48 46° E 21:43:20 10° NNE
DNEPR-1 R/B 4.3 21:31:44 10° SSW 21:38:22 63° ESE 21:43:49 10° NE
Cosmos 990 Rocket 3.9 21:38:29 61° SE 21:38:52 63° ESE 21:44:03 10° NNE
CZ-2C R/B 3.8 21:35:06 10° N 21:39:39 73° WNW 21:41:14 40° SSW
ATLAS 2AS CENTAUR R/B 4.0 21:35:04 10° N 21:40:54 26° NE 21:43:03 22° ENE
Meteor 1-5 Rocket 3.9 21:35:36 10° N 21:40:55 79° E 21:41:48 62° SSE
Mugunghwa Rocket 4.1 21:37:13 10° WSW 21:43:22 54° S 21:44:09 51° SSE
Cosmos 2297 3.7 21:44:11 58° ESE 21:44:16 58° ESE 21:49:50 10° NNE
Meteor 1-11 Rocket 4.2 21:40:03 10° N 21:45:40 44° ENE 21:45:50 44° E
Cosmos 1500 4.1 21:44:49 10° NNW 21:48:20 42° W 21:48:21 42° W
Cosmos 1470 Rocket 4.1 21:45:39 10° NNW 21:50:02 55° W 21:50:38 50° SW
MetOp-B 4.0 21:51:06 65° S 21:51:56 85° WSW 21:57:19 10° NNW
CZ-2C R/B 3.6 21:49:20 10° WSW 21:50:00 14° WSW 21:50:00 14° WSW
Cosmos 158 Rocket 4.1 21:51:37 10° N 21:56:01 58° NE 21:56:01 58° NE
USA 305 3.8 21:56:07 10° NNW 21:59:27 45° N 21:59:27 45° N
SJ 16-02 3.7 21:59:32 10° WSW 22:02:56 21° WNW 22:06:22 10° NNW
Cosmos 1933 Rocket 4.0 21:59:35 10° NNW 22:03:25 57° WNW 22:03:25 57° WNW
Cosmos 2082 Rocket 2.1 22:02:19 10° NNW 22:07:46 71° NE 22:07:46 71° NE
ARIANE 5 R/B 3.5 22:09:37 44° N 22:09:37 44° N 22:12:39 10° N
Cosmos 1943 Rocket 2.4 22:13:48 59° NE 22:13:48 59° NE 22:18:23 10° NNE
GOES 2 Rocket 4.5 22:03:43 10° W 22:13:23 70° S 22:14:42 61° SE
SPOT 1/Viking Rocket 3.9 22:18:27 57° W 22:18:27 57° W 22:23:31 10° NNW
USA 306 4.3 22:15:39 10° NW 22:18:19 37° NW 22:18:19 37° NW
OAO 3 Rocket 4.1 22:16:31 10° W 22:19:55 44° WNW 22:19:55 44° WNW
CZ-4C R/B 3.6 22:14:31 10° NW 22:22:07 52° WSW 22:24:23 42° SSW
COSMOS 2406 4.3 22:21:18 10° NW 22:26:22 35° WSW 22:26:51 34° WSW
Terra 3.1 22:29:06 33° NNE 22:29:06 33° NNE 22:31:56 10° N
Nadezhda 1 Rocket 4.3 22:27:01 55° SW 22:28:02 63° W 22:34:14 10° N
ERS-1 Rocket 3.6 22:29:37 51° N 22:29:37 51° N 22:33:23 10° N
Cosmos 2154 Rocket 3.9 22:22:48 10° N 22:28:56 85° N 22:28:56 85° N
Cosmos 2369 Rocket 3.6 22:32:54 27° NE 22:32:54 27° NE 22:35:28 10° NNE
Spot 2 Rocket 4.1 22:32:34 51° WNW 22:32:34 51° WNW 22:36:43 10° NNW
Cosmos 1937 Rocket 4.2 22:35:39 49° NNW 22:35:39 49° NNW 22:39:36 10° N
Cosmos 2184 Rocket 4.5 22:29:43 10° NNW 22:35:40 51° W 22:36:14 49° WSW
SPOT 5 4.1 22:54:07 42° NW 22:54:07 42° NW 22:57:50 10° NNW
ATLAS 2AS CENTAUR R/B 3.5 23:25:21 10° NW 23:30:29 45° WNW 23:30:29 45° WNW
